Regional Weather Roundup
Issued by NWS

Home | Current Version | Previous Version | Graphics & Text | Print | Product List | Glossary On
Versions: 1 2 3 4 5 6 7 8 9 10 11 12 13 14 15 16 17 18 19 20 21 22 23 24 25 26 27 28 29 30 31 32 33 34 35 36 37 38 39 40 41 42 43 44 45 46 47 48 49 50
000
ASUS43 KBIS 182010
RWRND

NORTH DAKOTA REGIONAL WEATHER ROUNDUP
NATIONAL WEATHER SERVICE BISMARCK ND
300 PM CDT WED OCT 18 2017

NOTE: "FAIR" INDICATES FEW OR NO CLOUDS BELOW 12,000 FEET WITH NO
SIGNIFICANT WEATHER AND/OR OBSTRUCTIONS TO VISIBILITY.


NDZ001>003-009>011-017-182100-
NORTHWEST NORTH DAKOTA

CITY           SKY/WX    TMP DP  RH WIND       PRES   REMARKS
WILLISTON      MOSUNNY   55  24  30 W16       29.94F
MINOT          SUNNY     57  18  21 W24G37    29.88S
MINOT AFB      SUNNY     56  16  20 W30G38    29.85S
$$

NDZ018>021-031>035-040>046-182100-
SOUTHWEST NORTH DAKOTA

CITY           SKY/WX    TMP DP  RH WIND       PRES   REMARKS
BISMARCK       SUNNY     61  21  21 W20G28    29.98R
DICKINSON      SUNNY     57  22  25 W17G25    29.97F
GARRISON         N/A     55  20  25 W24G37    29.93S
HETTINGER ARPT SUNNY     59  20  22 W14       30.02F
$$

NDZ004>008-012>016-024-026-027-054-182100-
NORTHEAST NORTH DAKOTA

CITY           SKY/WX    TMP DP  RH WIND       PRES   REMARKS
GRAND FORKS    MOSUNNY   62  16  16 W18G38    29.80R
GRND FRKS AFB  SUNNY     60  14  16 W29G35    29.80R
DEVILS LAKE    SUNNY     56  15  20 W33G41    29.81R
$$

NDZ022-023-025-028>030-036>039-047>053-182100-
SOUTHEAST NORTH DAKOTA

CITY           SKY/WX    TMP DP  RH WIND       PRES   REMARKS
FARGO          SUNNY     63  13  14 W24G35    29.86R
JAMESTOWN      CLOUDY    59  17  19 NW23G32   29.91S
$$





USA.gov is the U.S. government's official web portal to all federal, state and local government web resources and services.